GW5815 Weather Reports


time (UTC)temp
C
wind
direction
speed
KPH
gust
KPH
rain 1hr
cm
rain 24hr
cm
rain mn
cm
humidity
%
barometer
mb
20260503000528 8 0 0.0 0.0 0.00 0.13 0.13 90 1010.2
20260503000037 8 0 0.0 0.0 0.00 0.13 0.13 90 1010.2
20260502235529 8 0 0.0 0.0 0.00 0.13 0.13 90 1010.2
20260502235030 8 0 0.0 0.0 0.00 0.13 0.13 90 1010.2
20260502234539 8 0 0.0 0.0 0.00 0.13 0.13 91 1010.2
20260502234030 8 0 0.0 0.0 0.00 0.13 0.13 91 1010.2
20260502233530 8 0 0.0 0.0 0.00 0.13 0.13 91 1010.3
20260502233035 8 0 0.0 0.0 0.00 0.13 0.13 92 1010.2
20260502232529 8 0 0.0 0.0 0.00 0.13 0.13 91 1010.1
20260502232030 8 0 0.0 0.0 0.00 0.13 0.13 91 1010.2
20260502231544 8 0 0.0 0.0 0.00 0.13 0.13 91 1010.2
20260502231029 8 0 0.0 0.0 0.00 0.13 0.13 91 1010.2
20260502230530 8 0 0.0 0.0 0.03 0.13 0.13 91 1010.2
20260502230043 8 0 0.0 0.0 0.03 0.13 0.13 91 1010.2
20260502225530 8 0 0.0 0.0 0.03 0.13 0.13 91 1010.1
20260502225029 8 0 0.0 0.0 0.03 0.13 0.13 91 1010.1
20260502224540 8 0 0.0 0.0 0.03 0.13 0.13 90 1010.1
20260502224030 8 0 0.0 0.0 0.03 0.13 0.13 90 1010.1
20260502223534 8 0 0.0 0.0 0.03 0.13 0.13 89 1010.1
20260502223048 8 0 0.0 1.6 0.03 0.13 0.13 89 1010.1
20260502222531 8 0 0.0 1.6 0.03 0.13 0.13 88 1010.1
20260502222030 9 0 0.0 3.2 0.03 0.13 0.13 87 1010.0
20260502221548 9 0 0.0 3.2 0.03 0.13 0.13 86 1010.2
20260502221029 9 249 0.0 3.2 0.03 0.13 0.13 84 1010.3
20260502220526 9 0 0.0 1.6 0.00 0.10 0.10 84 1010.3
20260502220044 10 0 0.0 3.2 0.00 0.10 0.10 83 1010.4
20260502215529 10 0 0.0 4.8 0.00 0.10 0.10 82 1010.3
20260502215030 10 271 0.0 4.8 0.00 0.10 0.10 82 1010.2
20260502214550 10 0 1.6 4.8 0.00 0.10 0.10 81 1010.3
20260502214030 10 256 1.6 6.4 0.00 0.10 0.10 80 1010.2
20260502213529 10 0 1.6 6.4 0.00 0.10 0.10 80 1010.2
20260502213042 10 164 1.6 4.8 0.00 0.10 0.10 79 1010.1
20260502212529 10 149 1.6 6.4 0.00 0.10 0.10 80 1010.0
20260502212029 11 146 3.2 9.7 0.00 0.10 0.10 80 1010.0
20260502211544 11 139 1.6 9.7 0.00 0.10 0.10 80 1010.0
20260502211030 11 153 3.2 9.7 0.00 0.10 0.10 80 1009.9
20260502210530 11 121 3.2 11.3 0.00 0.10 0.10 79 1009.9
20260502210047 11 155 4.8 12.9 0.00 0.10 0.10 80 1009.9
20260502205530 11 134 4.8 12.9 0.00 0.10 0.10 78 1009.8
20260502205029 11 139 4.8 9.7 0.00 0.10 0.10 78 1009.9
20260502204537 11 118 3.2 11.3 0.00 0.10 0.10 79 1009.9
20260502204030 11 194 4.8 11.3 0.00 0.10 0.10 78 1010.0
20260502203530 11 158 1.6 6.4 0.00 0.10 0.10 78 1010.0
20260502203047 11 122 1.6 11.3 0.00 0.10 0.10 77 1010.0
20260502202532 11 117 3.2 16.1 0.00 0.10 0.10 78 1010.0
20260502202028 11 96 4.8 16.1 0.00 0.10 0.10 76 1009.9
20260502201541 11 177 4.8 16.1 0.00 0.10 0.10 75 1010.0
20260502201029 11 141 6.4 11.3 0.00 0.10 0.10 75 1010.0
20260502200529 11 119 6.4 11.3 0.00 0.10 0.10 78 1010.1
20260502200035 11 136 4.8 11.3 0.00 0.10 0.10 76 1010.1
20260502195530 11 166 4.8 11.3 0.00 0.10 0.10 76 1010.2
20260502195029 11 136 4.8 9.7 0.00 0.10 0.10 75 1010.3
20260502194540 11 146 4.8 11.3 0.00 0.10 0.10 77 1010.6
20260502194029 11 113 4.8 12.9 0.00 0.10 0.10 78 1010.5
20260502193530 11 158 6.4 12.9 0.00 0.10 0.10 77 1010.4
20260502193037 11 198 8.0 12.9 0.00 0.10 0.10 75 1010.5
20260502192529 11 121 4.8 12.9 0.00 0.10 0.10 77 1010.5
20260502192027 11 149 4.8 9.7 0.00 0.10 0.10 79 1010.7
20260502191536 11 92 4.8 14.5 0.00 0.10 0.10 82 1010.6
20260502191029 11 209 4.8 14.5 0.00 0.10 0.10 80 1010.6
20260502190529 11 150 4.8 12.9 0.00 0.10 0.10 79 1010.8
20260502190036 10 169 4.8 11.3 0.00 0.10 0.10 79 1010.8
20260502185529 10 103 4.8 11.3 0.00 0.10 0.10 82 1010.8
20260502185029 10 158 4.8 9.7 0.03 0.10 0.10 81 1010.8
20260502184543 10 176 3.2 6.4 0.03 0.10 0.10 85 1010.9
20260502184029 9 156 3.2 6.4 0.03 0.10 0.10 84 1010.9
20260502183528 9 160 3.2 6.4 0.03 0.10 0.10 86 1011.1
20260502183039 9 158 3.2 6.4 0.03 0.10 0.10 88 1011.1
20260502182529 9 145 3.2 9.7 0.03 0.10 0.10 87 1011.1
20260502182027 9 118 4.8 9.7 0.05 0.10 0.10 86 1011.0
20260502181536 9 110 3.2 6.4 0.05 0.10 0.10 86 1011.2
20260502181029 9 160 3.2 8.0 0.05 0.10 0.10 87 1011.1
20260502180531 9 136 3.2 8.0 0.05 0.10 0.10 86 1011.2
20260502164029 10 0 0.0 0.0 0.05 0.05 0.05 79 1011.4
20260502163528 10 0 0.0 1.6 0.05 0.05 0.05 78 1011.5
20260502163039 10 0 0.0 8.0 0.03 0.03 0.03 77 1011.4
20260502162534 10 186 3.2 9.7 0.03 0.03 0.03 74 1011.4
20260502162029 10 197 0.0 9.7 0.03 0.03 0.03 73 1011.3
20260502161536 11 179 6.4 9.7 0.03 0.03 0.03 70 1011.4
20260502161032 11 238 3.2 8.0 0.03 0.03 0.03 74 1011.3
20260502160532 11 137 4.8 8.0 0.00 0.00 0.00 73 1011.6
20260502152026 11 139 1.6 4.8 0.00 0.00 0.00 77 1011.6
20260502151536 11 159 0.0 4.8 0.00 0.00 0.00 77 1011.7
20260502151026 11 0 0.0 9.7 0.00 0.00 0.00 77 1011.7
20260502150528 11 91 1.6 9.7 0.00 0.00 0.00 77 1011.9
20260502130532 9 0 0.0 3.2 0.00 0.00 0.00 84 1012.6
20260502123529 9 273 0.0 6.4 0.00 0.00 0.00 81 1012.7
20260502123044 9 227 1.6 6.4 0.00 0.00 0.00 80 1012.7
20260502122529 9 0 3.2 6.4 0.00 0.00 0.00 79 1012.7
20260502122029 10 263 1.6 4.8 0.00 0.00 0.00 79 1012.6
20260502121542 10 192 0.0 4.8 0.00 0.00 0.00 79 1012.5
20260502121028 10 230 0.0 4.8 0.00 0.00 0.00 79 1012.4
20260502120528 10 159 1.6 4.8 0.00 0.00 0.00 79 1012.2
20260502115529 10 217 1.6 6.4 0.00 0.00 0.00 79 1012.1
20260502115028 10 194 3.2 4.8 0.00 0.00 0.00 79 1012.2
20260502114559 10 192 1.6 3.2 0.00 0.00 0.00 80 1012.0
20260502114029 9 0 0.0 1.6 0.00 0.00 0.00 81 1011.9
20260502113526 8 0 0.0 3.2 0.00 0.00 0.00 81 1011.7
20260502113036 8 0 0.0 3.2 0.00 0.00 0.00 82 1011.8
20260502112526 8 150 0.0 1.6 0.00 0.00 0.00 81 1011.8
20260502112031 8 0 0.0 1.6 0.00 0.00 0.00 81 1011.7
20260502111536 8 141 0.0 1.6 0.00 0.00 0.00 82 1011.6
20260502111026 8 141 0.0 1.6 0.00 0.00 0.00 81 1011.9
20260502110529 8 193 0.0 3.2 0.00 0.00 0.00 81 1011.9
20260502110035 8 0 0.0 4.8 0.00 0.00 0.00 81 1011.8
20260502105532 8 144 1.6 4.8 0.00 0.00 0.00 82 1011.7
20260502105030 8 133 0.0 4.8 0.00 0.00 0.00 82 1011.8
20260502104540 8 142 0.0 4.8 0.00 0.00 0.00 82 1011.8
20260502104029 8 0 0.0 1.6 0.00 0.00 0.00 83 1011.7
20260502103529 7 0 0.0 1.6 0.00 0.00 0.00 83 1011.5
20260502103037 8 0 0.0 3.2 0.00 0.00 0.00 83 1011.6
20260502102529 7 0 0.0 3.2 0.00 0.00 0.00 83 1011.6
20260502102029 7 144 1.6 3.2 0.00 0.00 0.00 84 1011.7
20260502101548 7 0 0.0 3.2 0.00 0.00 0.00 84 1011.6
20260502101028 7 0 0.0 0.0 0.00 0.00 0.00 85 1011.6
20260502100525 7 0 0.0 0.0 0.00 0.00 0.00 85 1011.4
20260502091029 7 0 0.0 0.0 0.00 0.00 0.00 84 1011.4
20260502090528 7 0 0.0 4.8 0.00 0.00 0.00 84 1011.3
20260502071025 8 0 0.0 1.6 0.00 0.00 0.00 73 1011.2
20260502070526 9 212 0.0 1.6 0.00 0.00 0.00 72 1011.2
20260502070046 9 0 0.0 1.6 0.00 0.00 0.00 72 1011.2
20260502065529 9 0 0.0 1.6 0.00 0.00 0.00 72 1011.2
20260502065027 9 0 0.0 1.6 0.00 0.00 0.00 71 1011.2
20260502064603 9 0 0.0 1.6 0.00 0.00 0.00 71 1011.4
20260502064029 9 214 0.0 1.6 0.00 0.00 0.00 71 1011.4
20260502063526 9 0 0.0 1.6 0.00 0.00 0.00 71 1011.5
20260502063054 9 0 0.0 4.8 0.00 0.00 0.00 71 1011.6
20260502062529 9 233 0.0 4.8 0.00 0.00 0.00 71 1011.4
20260502062030 9 0 1.6 8.0 0.00 0.00 0.00 70 1011.4
20260502061535 9 0 1.6 8.0 0.00 0.00 0.00 71 1011.4
20260502061025 9 202 0.0 4.8 0.00 0.00 0.00 71 1011.4
20260502060527 9 196 1.6 4.8 0.00 0.00 0.00 71 1011.5
20260502060046 9 201 0.0 1.6 0.00 0.00 0.00 71 1011.4
20260502055526 9 0 0.0 4.8 0.00 0.00 0.00 71 1011.5
20260502055030 9 0 1.6 4.8 0.00 0.00 0.00 71 1011.4
20260502054536 9 168 0.0 0.0 0.00 0.00 0.00 70 1011.4
20260502054029 9 0 0.0 3.2 0.00 0.00 0.00 71 1011.4
20260502053529 9 0 0.0 3.2 0.00 0.00 0.00 71 1011.6
20260502053042 9 0 0.0 3.2 0.00 0.00 0.00 71 1011.6
20260502052526 8 0 0.0 3.2 0.00 0.00 0.00 70 1011.6
20260502052029 8 195 0.0 3.2 0.00 0.00 0.00 70 1011.6
20260502051536 8 168 0.0 1.6 0.00 0.00 0.00 70 1011.6
20260502051028 8 0 0.0 1.6 0.00 0.00 0.00 70 1011.6
20260502050526 8 155 0.0 1.6 0.00 0.00 0.00 69 1011.5
20260502050036 8 0 0.0 0.0 0.00 0.00 0.00 69 1011.6
20260502045526 9 0 0.0 0.0 0.00 0.00 0.00 68 1011.6
20260502045025 9 0 0.0 0.0 0.00 0.00 0.00 67 1011.6
20260502044537 9 0 0.0 0.0 0.00 0.00 0.00 67 1011.5
20260502044026 9 0 0.0 0.0 0.00 0.00 0.00 67 1011.6
20260502043526 9 0 0.0 0.0 0.00 0.00 0.00 66 1011.7
20260502043050 9 0 0.0 0.0 0.00 0.00 0.00 66 1011.7
20260502042527 9 0 0.0 0.0 0.00 0.00 0.00 65 1011.7
20260502042027 10 0 0.0 0.0 0.00 0.00 0.00 65 1011.7
20260502041541 10 0 0.0 0.0 0.00 0.00 0.00 64 1011.7
20260502041027 10 0 0.0 1.6 0.00 0.00 0.00 64 1011.7
20260502040531 10 0 0.0 1.6 0.00 0.00 0.00 63 1011.7
20260502040039 10 0 0.0 1.6 0.00 0.00 0.00 63 1011.8
20260502035526 10 0 0.0 1.6 0.00 0.00 0.00 62 1011.7
20260502035028 10 240 0.0 1.6 0.00 0.00 0.00 62 1011.7
20260502034537 10 0 0.0 1.6 0.00 0.00 0.00 62 1011.7
20260502034027 10 0 0.0 1.6 0.00 0.00 0.00 62 1011.6
20260502033527 10 251 0.0 1.6 0.00 0.00 0.00 60 1011.7
20260502033037 10 0 0.0 1.6 0.00 0.00 0.00 60 1011.7
20260502032525 10 0 0.0 1.6 0.00 0.00 0.00 60 1011.8
20260502032027 10 0 0.0 3.2 0.00 0.00 0.00 59 1011.8
20260502031537 10 0 0.0 3.2 0.00 0.00 0.00 59 1011.7
20260502031030 10 0 0.0 1.6 0.00 0.00 0.00 58 1011.7
20260502030529 10 211 0.0 3.2 0.00 0.00 0.00 57 1011.7
20260502030048 11 0 0.0 3.2 0.00 0.00 0.00 56 1011.5
20260502025528 10 217 0.0 3.2 0.00 0.00 0.00 56 1011.4
20260502025030 10 233 0.0 3.2 0.00 0.00 0.00 55 1011.5
20260502024540 10 259 0.0 3.2 0.00 0.00 0.00 55 1011.4
20260502024028 10 219 0.0 3.2 0.00 0.00 0.00 55 1011.5
20260502023528 10 0 0.0 3.2 0.00 0.00 0.00 55 1011.5
20260502023036 10 201 0.0 4.8 0.00 0.00 0.00 55 1011.5
20260502022525 10 0 0.0 4.8 0.00 0.00 0.00 55 1011.6
20260502022028 10 0 1.6 4.8 0.00 0.00 0.00 56 1011.6
20260502021536 10 0 0.0 0.0 0.00 0.00 0.00 56 1011.6
20260502021027 9 0 0.0 0.0 0.00 0.00 0.00 57 1011.5
20260502020533 8 214 0.0 1.6 0.00 0.00 0.00 60 1011.4
20260502020036 8 198 0.0 1.6 0.00 0.00 0.00 68 1011.4
20260502015529 8 0 0.0 0.0 0.00 0.00 0.00 69 1011.2
20260502015026 8 0 0.0 0.0 0.00 0.00 0.00 66 1011.1
20260502014536 8 0 0.0 0.0 0.00 0.00 0.00 64 1011.1
20260502014025 8 0 0.0 0.0 0.00 0.00 0.00 65 1011.0
20260502013529 8 0 0.0 0.0 0.00 0.00 0.00 64 1011.1
20260502013049 8 0 0.0 0.0 0.00 0.00 0.00 63 1011.1
20260502012528 8 0 0.0 0.0 0.00 0.00 0.00 64 1011.0
20260502012031 8 0 0.0 0.0 0.00 0.00 0.00 63 1011.0
20260502011539 8 0 0.0 0.0 0.00 0.00 0.00 60 1011.1
20260502011027 9 0 0.0 0.0 0.00 0.00 0.00 60 1011.0
20260502010527 9 0 0.0 0.0 0.00 0.00 0.00 59 1010.9
20260502010038 10 0 0.0 0.0 0.00 0.00 0.00 56 1010.8
20260502005528 10 0 0.0 0.0 0.00 0.00 0.00 56 1010.7
20260502005028 10 0 0.0 0.0 0.00 0.00 0.00 54 1010.6
20260502004541 10 0 0.0 0.0 0.00 0.00 0.00 52 1010.7
20260502004028 10 0 0.0 0.0 0.00 0.00 0.00 50 1010.6
20260502003529 11 0 0.0 0.0 0.00 0.00 0.00 49 1010.5
20260502003035 11 0 0.0 0.0 0.00 0.00 0.00 49 1010.4
20260502002529 11 0 0.0 0.0 0.00 0.00 0.00 48 1010.4
20260502002029 11 0 0.0 0.0 0.00 0.00 0.00 47 1010.3
20260502001537 12 0 0.0 0.0 0.00 0.00 0.00 44 1010.2
20260502001029 12 0 0.0 0.0 0.00 0.00 0.00 42 1010.1